Inquirer Daily News

Weather

Get conditions and forecasts for any City, State, ZIP code or Country:  
Northeast Philadelphia, PA
on Tuesday, February 5, 2013

Tuesday
Previous Day Next Day
Daily Summary
 ActualAverage (KTTN)Record (KTTN)
Temperature
Mean Temperature °F 32°F  
Max Temperature 33°F 40°F 68°F (1991)
Min Temperature 28°F 25°F -6°F (1918)
Degree Days
Heating Degree Days 34 33  
Month to date heating degree days 165  
Since 1 July heating degree days 3111  
Cooling Degree Days 0 0  
Month to date cooling degree days 0  
Year to date cooling degree days 0  
Moisture
Dew Point 27°F   
Average Humidity 85    
Maximum Humidity 93    
Minimum Humidity 75    
Precipitation
Precipitation 0.02 in 0.06 in 1.52 in (1920)
Month to date precipitation 0.35  
Year to date precipitation 3.51  
Wind
Wind Speed 4 mph   
Max Wind Speed 8 mph   
Max Gust Speed mph   
Visibility 6 miles   
Events Snow   

Key: T is trace of precipitation, MM is missing value
Source: NWS Daily Summary
Time(EST)TemperatureDew PointHumidity Pressure Visibility Wind DirectionWind SpeedGust SpeedPrecipitationEvents Conditions
12:54 AM 28.9°F 21.9°F 75% 29.96 in 10.0 miles Variable 3.5 mph - N/A   Overcast
1:54 AM 28.0°F 24.1°F 85% 29.94 in 10.0 miles East 5.8 mph - N/A   Overcast
2:01 AM 28.4°F 24.8°F 86% 29.94 in 10.0 miles ESE 4.6 mph - N/A   Overcast
2:10 AM 28.4°F 24.8°F 86% 29.94 in 10.0 miles SE 5.8 mph - N/A   Overcast
2:54 AM 28.0°F 25.0°F 88% 29.94 in 10.0 miles Calm Calm - N/A   Overcast
3:54 AM 28.9°F 25.0°F 85% 29.92 in 9.0 miles ENE 3.5 mph - N/A   Overcast
4:54 AM 28.9°F 25.0°F 85% 29.93 in 9.0 miles Calm Calm - N/A   Overcast
5:54 AM 28.9°F 25.0°F 85% 29.93 in 8.0 miles NE 3.5 mph - N/A   Overcast
6:54 AM 28.9°F 25.0°F 85% 29.93 in 8.0 miles NNE 4.6 mph - N/A   Overcast
7:54 AM 28.9°F 25.0°F 85% 29.96 in 7.0 miles NNE 5.8 mph - N/A   Overcast
8:46 AM 30.2°F 24.8°F 80% 29.96 in 7.0 miles ENE 4.6 mph - N/A   Overcast
8:54 AM 30.0°F 25.0°F 82% 29.97 in 7.0 miles NE 6.9 mph - N/A   Overcast
9:54 AM 30.9°F 25.0°F 79% 29.97 in 7.0 miles NNE 5.8 mph - N/A   Overcast
10:54 AM 30.9°F 25.0°F 79% 29.98 in 8.0 miles ENE 4.6 mph - N/A   Overcast
11:23 AM 30.2°F 24.8°F 80% 29.97 in 9.0 miles ENE 5.8 mph - N/A   Overcast
11:54 AM 32.0°F 25.0°F 75% 29.97 in 8.0 miles Calm Calm - N/A   Overcast
12:54 PM 32.0°F 26.1°F 79% 29.94 in 9.0 miles ENE 6.9 mph - N/A   Overcast
1:54 PM 33.1°F 26.1°F 75% 29.93 in 8.0 miles ENE 5.8 mph - N/A   Overcast
2:54 PM 33.1°F 26.1°F 75% 29.91 in 7.0 miles East 8.1 mph - N/A   Overcast
3:54 PM 33.1°F 27.0°F 78% 29.92 in 6.0 miles ENE 5.8 mph - N/A   Haze
4:54 PM 33.1°F 27.0°F 78% 29.91 in 4.0 miles East 5.8 mph - 0.00 in   Overcast
5:01 PM 33.8°F 26.6°F 75% 29.91 in 5.0 miles East 5.8 mph - 0.00 in   Haze
5:54 PM 32.0°F 28.0°F 85% 29.92 in 2.5 miles Calm Calm - 0.00 in Snow Light Snow
6:34 PM 32.0°F 30.2°F 93% 29.92 in 1.8 miles Calm Calm - 0.01 in Snow Light Snow
6:54 PM 32.0°F 30.0°F 92% 29.93 in 2.0 miles East 3.5 mph - 0.02 in Snow Light Snow
7:01 PM 32.0°F 30.2°F 93% 29.92 in 1.8 miles East 3.5 mph - N/A Snow Light Snow
7:13 PM 32.0°F 30.2°F 93% 29.92 in 2.0 miles Calm Calm - 0.00 in Snow Light Snow
7:32 PM 32.0°F 30.2°F 93% 29.92 in 3.0 miles Calm Calm - 0.00 in   Overcast
7:41 PM 32.0°F 30.2°F 93% 29.92 in 3.0 miles Calm Calm - 0.00 in   Overcast
7:54 PM 32.0°F 30.0°F 92% 29.93 in 3.0 miles Calm Calm - 0.00 in   Overcast
8:54 PM 32.0°F 30.0°F 92% 29.93 in 3.0 miles Calm Calm - N/A   Overcast
9:54 PM 32.0°F 30.0°F 92% 29.94 in 3.0 miles NNE 3.5 mph - N/A   Overcast
10:54 PM 32.0°F 28.9°F 88% 29.94 in 4.0 miles Calm Calm - N/A   Overcast
11:54 PM 32.0°F 30.0°F 92% 29.95 in 3.0 miles Calm Calm - N/A   Overcast
Astronomy
Sunrise:07:04 AM (EST) Moon Rise:02:43 AM (EST)2/5
Sunset:05:24 PM (EST) Moon Set:12:39 PM (EST)2/5
Moon Phase
Feb. 05 Feb. 10 Feb. 17 Feb. 25 Mar. 04

Copyright © 2014 The Weather Underground, Inc.